SCP
-0 0 0 0 0 0 0 0 0 0 0 0 0 0 0 0 0 0 0 0 0 0 0 0 0 0 -0 0 0 0 0 0 0 0 0 0 0 0 0 0 -0 0 0 0 0 0 0
0 0 0 0 0 0 0 0 0 0 0 0 0 0 0 0 0 0 0 0 0 0 0 0 0 0 0 0 0 0 0 0 0 0 0 0 0 -0 0 0 0 -0 0 0 0 0 0
0 0 0 0 0 0 0 0 0 0 0 0 0 0 0 0 0 0 0 0 0 0 0 0 -0 -0 0 0 0 0 0 0 0 0 0 0 -0 0 -0 0 0 0 0 -0 0 0 0
0 0 0 0 0 0 0 0 0 0 0 0 0 0 0 0 0 0 0 0 0 0 0 -0 -0 0 0 0 0 0 0 0 0 0 -0 0 0 -0 -0 -0 -0 0 0 -0 0 0 0
0 0 0 0 0 0 0 0 0 0 0 0 0 0 0 0 0 0 0 0 0 0 -0 -0 0 0 0 0 0 0 0 0 -0 0 -0 -0 -0 -0 -0 0 -0 0 0 -0 0 0 0
0 0 0 0 0 0 0 0 0 0 0 0 0 0 0 0 0 0 -0 -0 -0 0 -0 -0 0 0 0 0 0 0 0 -0 -0 0 0 -0 -0 0 -0 0 0 -0 0 0 -0 0 0
0 0 0 0 0 0 0 0 0 0 0 0 0 0 0 0 0 0 0 0 0 0 0 0 0 0 0 0 0 0 0 -0 -0 -0 -0 0 -0 0 0 0 0 0 0 0 0 0 0
0 0 0 0 0 0 0 0 0 0 0 0 0 0 0 0 0 -0 0 0 0 0 0 0 0 0 0 0 0 0 -0 0 0 -0 0 0 0 0 0 0 0 0 0 0 0 0 0
0 0 0 0 0 0 0 0 0 0 0 0 0 0 0 0 0 0 -0 0 0 0 0 0 0 0 0 0 0 0 0 0 0 0 0 0 0 0 0 0 0 0 0 0 0 0 0
0 0 0 0 0 0 0 0 0 0 0 0 0 0 0 0 0 0 -0 0 0 0 0 0 0 0 0 0 0 0 0 0 0 0 0 0 0 0 0 0 0 0 0 0 0 0 0
0 0 0 0 0 0 0 0 0 0 0 0 0 0 0 0 0 0 0 0 0 0 0 0 0 0 0 0 0 -0 -0 0 -0 0 0 0 0 0 0 0 0 0 0 0 0 0 0
0 0 0 0 0 0 0 0 0 0 0 0 0 0 0 0 0 0 0 0 0 0 0 0 0 0 0 0 -0 0 -0 0 0 0 0 0 0 0 0 0 0 0 0 0 -0 0 0
0 0 0 0 0 0 0 0 0 0 0 0 0 0 0 0 0 0 0 0 0 0 0 0 0 0 0 0 0 0 -0 -0 -0 -0 0 0 0 0 0 0 0 0 0 0 -0 0 -0
0 0 0 0 0 0 0 0 0 0 0 0 0 0 0 0 0 0 0 0 0 0 0 0 0 0 0 0 0 0 0 -0 -0 0 0 0 0 0 0 0 0 0 0 0 0 0 -0
0 0 0 0 0 0 0 0 0 0 0 0 0 0 0 0 0 0 0 0 0 0 0 0 0 0 0 0 0 0 -0 -0 0 0 0 0 0 0 0 -0 -0 -0 0 0 0 -0 0
0 0 0 0 0 0 0 0 0 0 0 0 0 0 0 0 0 0 0 0 0 0 0 0 0 0 0 0 0 0 0 0 0 0 0 0 0 0 0 -0 -0 0 -0 0 0 0 0
0 0 0 0 0 0 0 0 0 0 0 0 0 0 0 0 0 0 0 0 0 0 0 0 0 0 0 0 0 0 0 0 0 0 0 0 0 0 0 0 -0 0 0 0 -0 -0 -0
0 0 0 0 0 0 0 0 0 0 0 0 0 0 0 0 0 0 0 0 0 0 0 0 0 0 0 0 0 0 0 0 0 0 0 0 -0 0 0 0 -0 -0 0 -0 -0 0 0
0 0 0 0 0 0 0 0 0 0 0 0 0 0 0 0 0 0 0 -0 0 0 0 0 0 0 0 0 0 0 0 0 0 0 0 0 0 0 0 0 -0 0 -0 -0 0 -0 -0
0 0 0 0 0 0 0 0 0 0 0 0 0 0 0 0 0 0 -0 0 0 0 -0 0 0 0 0 0 0 0 0 0 0 0 0 0 0 0 0 -0 -0 0 0 0 0 -0 -0
0 0 0 0 0 0 0 0 0 0 0 0 0 0 0 0 0 0 0 -0 -0 0 0 0 0 0 0 0 0 0 0 0 0 0 0 0 0 -0 -0 -0 -0 -0 -0 -0 -0 -0 -0
0 0 0 0 0 0 0 0 0 0 0 0 0 0 0 0 0 -0 0 -0 -0 -0 0 0 0 0 0 0 0 0 0 0 0 0 0 0 0 0 0 0 -0 -0 -0 -0 -0 -0 -0
0 0 0 0 0 0 0 0 0 0 0 0 0 0 0 0 0 0 0 0 -0 0 -0 -0 -0 -0 0 0 0 0 0 0 0 0 0 0 0 0 0 0 0 0 -0 -0 -0 -0 -0
0 0 0 0 0 0 0 0 0 0 0 0 0 0 0 0 0 0 -0 -0 -0 -0 -0 -0 0 0 0 0 0 0 0 0 0 0 0 0 0 0 0 0 0 0 0 0 0 -0 -0
0 0 0 0 0 0 0 0 0 0 0 0 0 0 0 0 -0 -0 -0 -0 -0 -0 -0 -0 -0 0 0 -0 0 0 0 0 0 0 0 0 0 0 0 0 0 0 0 0 0 0 -0
0 0 0 0 0 0 0 0 0 0 0 0 0 0 0 0 -0 -0 -0 -0 -0 -0 -0 -0 0 0 -0 -0 0 0 0 0 0 0 0 0 0 0 0 0 0 0 0 0 0 -0 0
0 0 0 0 0 0 0 0 0 0 0 0 0 0 0 0 0 -0 -0 -0 -0 -0 -0 0 0 0 0 0 0 0 0 -0 -0 -0 -0 0 0 0 0 0 0 0 0 0 0 0 0
0 0 0 0 0 0 0 0 0 0 0 0 0 0 0 0 -0 -0 -0 -0 0 -0 0 0 0 -0 -0 -0 -0 -0 0 0 -0 0 0 0 0 0 0 0 0 0 0 0 0 0 0
0 0 0 0 0 0 0 0 0 0 0 0 0 0 0 0 -0 -0 -0 -0 -0 -0 0 -0 -0 -0 -0 -0 -0 -0 -0 0 0 0 0 0 0 0 0 0 0 0 0 0 0 0 0
Wind_Speed_500mb
36 38 42 40 38 37 36 30 29 25 22 27 26 25 27 27 27 27 25 23 19 11 7 8 6 13 19 14 5 11 29 25 28 19 24 24 26 29 31 30 37 23 24 30 13 11 5
37 38 43 41 39 39 38 30 26 22 21 26 28 23 26 24 24 24 21 18 12 5 5 3 3 16 15 23 11 15 26 22 20 22 25 23 26 25 24 30 27 33 29 25 22 15 9
37 38 42 42 38 43 36 32 24 19 22 25 26 23 24 23 22 21 15 10 5 5 5 4 9 12 15 15 16 16 24 17 15 15 21 24 23 21 23 24 17 15 24 26 28 11 7
38 39 42 40 42 42 37 29 20 19 23 21 25 24 22 21 20 18 8 4 1 1 5 6 7 7 11 6 18 19 21 9 11 9 10 5 11 18 24 24 26 27 30 28 22 19 14
40 38 39 39 44 42 37 25 19 20 24 22 22 23 24 17 16 12 8 21 17 16 8 9 4 10 4 11 21 16 19 8 6 1 3 2 7 24 22 24 24 22 22 13 15 19 3
39 37 34 39 44 43 32 23 23 22 24 22 22 20 23 18 11 10 17 21 6 2 4 7 8 14 3 13 10 20 13 10 8 4 12 15 16 19 12 19 19 27 28 27 25 19 9
39 34 34 38 42 41 27 23 23 23 24 22 22 19 19 15 11 15 20 18 6 2 11 17 8 14 10 16 5 20 18 7 9 13 20 4 17 18 21 19 22 26 28 28 24 19 11
36 33 34 38 41 39 24 24 23 24 22 21 22 19 18 15 13 25 33 8 5 7 6 4 13 8 11 13 6 26 26 9 9 16 2 12 14 19 16 20 18 25 32 31 22 21 10
37 33 32 37 40 33 25 24 24 22 19 19 21 18 19 12 17 32 33 13 13 16 10 4 3 11 20 14 17 23 21 18 17 3 12 15 19 14 14 18 23 24 24 26 23 28 29
41 33 31 37 40 29 24 24 23 20 18 18 19 16 13 9 9 19 17 22 21 7 7 4 2 8 17 3 6 21 18 8 1 13 11 12 15 20 17 12 22 23 22 26 30 25 21
44 36 32 36 35 25 25 23 21 19 19 16 14 13 11 28 14 17 16 17 20 7 5 0 10 5 17 8 6 21 21 17 21 18 10 13 17 21 21 19 26 25 30 34 34 28 22
49 41 34 35 33 26 28 23 19 21 18 11 11 7 13 17 14 17 23 15 9 3 6 8 4 8 17 22 23 15 22 10 4 4 20 15 11 15 25 29 22 14 32 35 32 25 16
53 45 36 35 34 29 28 24 21 21 14 8 9 10 24 23 6 20 27 17 4 8 1 14 11 11 16 15 11 14 28 30 18 8 9 21 20 12 34 24 21 28 30 12 12 6 8
56 46 38 36 35 30 30 22 23 18 11 9 5 8 19 27 17 27 36 10 7 8 8 11 9 8 4 3 14 8 12 16 28 26 5 12 7 24 24 15 24 27 25 9 9 10 6
57 49 40 36 36 33 30 25 23 16 12 11 10 9 3 14 31 34 10 8 5 3 10 15 11 12 8 9 3 8 25 19 18 24 12 10 7 12 13 11 22 14 18 6 9 18 12
57 52 42 37 38 35 32 27 23 20 19 15 8 4 6 29 30 13 3 7 5 8 6 6 6 6 6 7 9 4 11 15 10 15 16 1 1 9 12 14 20 17 24 9 10 8 7
60 55 45 39 40 36 33 29 26 25 25 18 9 8 12 26 18 12 4 6 14 10 5 11 2 5 10 5 6 6 10 12 14 11 9 4 9 2 1 17 23 17 11 11 9 6 4
63 57 48 42 42 39 37 33 30 33 27 16 7 5 24 29 11 15 8 12 21 14 9 6 13 14 8 4 9 6 12 14 14 15 8 6 10 8 17 19 22 32 14 9 5 5 5
65 59 50 45 45 42 40 36 35 39 32 16 6 12 26 12 4 8 16 21 15 9 8 5 8 9 4 7 5 10 12 9 13 10 9 11 3 4 15 13 27 16 12 6 6 0 12
68 62 50 49 49 44 43 39 37 41 39 16 7 6 9 14 14 27 24 19 12 16 19 19 15 13 12 10 9 9 13 7 7 11 4 7 7 16 13 18 9 6 3 6 7 9 10
72 61 54 53 49 44 44 39 37 43 43 16 6 3 6 11 18 23 13 21 24 10 8 5 7 5 6 4 10 7 12 12 8 5 4 8 21 30 27 24 25 25 22 16 19 14 9
73 61 56 56 54 52 51 44 42 47 45 22 4 8 8 29 29 25 9 19 23 18 4 9 12 7 15 19 17 10 3 12 12 7 5 3 9 27 24 26 31 22 34 25 25 19 20
68 56 58 59 57 53 48 43 45 51 46 9 8 20 14 26 23 15 10 13 21 16 22 20 18 22 23 21 23 25 26 22 15 13 10 5 15 18 14 11 8 18 15 19 20 23 27
62 56 58 59 55 53 50 47 52 54 41 9 19 17 18 16 13 14 27 30 17 12 20 20 12 19 9 15 19 17 20 19 19 17 12 15 2 4 14 14 5 3 1 6 10 20 30
59 59 60 61 58 54 50 50 54 55 31 22 21 6 30 21 39 35 39 40 42 39 35 29 27 24 19 12 6 9 7 5 10 15 14 12 8 5 7 7 10 3 3 3 9 21 25
60 62 63 62 58 54 52 53 54 55 36 37 16 25 51 39 22 36 37 32 22 22 23 24 14 8 4 10 5 11 9 12 10 13 23 8 5 5 4 7 6 7 10 8 1 9 30
62 64 64 62 57 54 53 53 55 50 40 37 41 40 27 46 27 13 16 14 7 22 12 16 8 4 7 12 11 12 10 11 12 13 15 6 8 9 6 9 10 12 6 9 5 8 27
63 63 62 59 55 54 53 55 57 43 46 43 38 37 39 32 42 32 31 24 6 8 9 13 9 1 11 9 10 8 10 8 10 20 8 12 10 7 8 8 11 27 6 3 3 13 21
64 63 60 56 55 54 53 57 55 54 47 43 44 38 70 44 49 46 35 17 22 16 16 11 16 13 5 4 6 8 16 7 8 6 24 9 8 3 11 7 11 11 8 6 8 19 22
Wind_Direction_500mb
297 302 308 310 309 314 311 294 285 277 271 275 276 282 290 293 296 297 300 301 302 296 299 305 279 192 185 247 249 9 353 328 301 279 267 266 261 266 267 267 284 285 285 269 300 316 88
292 297 304 306 304 309 306 295 282 271 266 276 281 285 288 291 292 294 295 296 293 260 279 253 133 171 198 259 340 320 317 316 285 264 256 257 260 274 314 289 286 294 319 298 293 271 132
286 293 299 300 300 306 305 292 275 256 266 276 281 288 288 289 289 289 290 286 265 269 247 214 176 196 262 286 338 320 324 310 298 262 260 252 259 279 281 300 320 306 276 260 225 183 158
283 289 296 296 297 304 303 290 261 258 269 276 281 287 285 290 291 288 266 193 114 228 178 163 152 240 281 312 346 321 334 322 316 274 249 309 251 274 276 280 282 248 247 261 191 143 126
277 281 288 291 296 301 300 283 260 267 270 271 277 286 285 282 287 278 195 143 97 76 135 139 200 248 237 313 335 332 337 315 327 193 274 242 236 248 255 246 267 220 299 233 155 117 345
268 276 280 290 295 299 291 258 253 262 270 274 277 278 283 281 276 233 174 165 83 111 128 204 267 252 336 333 322 338 344 293 284 206 219 220 234 232 255 14 343 332 330 326 316 115 95
265 270 279 290 296 297 277 247 254 260 264 270 273 275 277 275 249 187 164 159 232 185 190 38 26 272 11 340 339 351 338 264 231 237 273 151 280 34 8 354 331 313 312 307 299 94 27
261 262 280 294 299 293 253 246 256 258 264 269 272 274 273 260 218 183 177 202 329 119 153 78 59 80 351 350 341 2 4 253 213 257 55 247 59 18 350 313 299 324 304 291 293 42 5
249 253 278 294 300 281 245 250 255 255 264 269 273 272 268 241 202 192 185 299 240 165 230 172 130 35 7 53 31 8 4 316 334 54 28 48 23 339 328 318 355 324 333 350 342 325 300
242 249 271 289 299 268 244 249 254 256 260 267 271 274 261 180 177 182 205 250 200 186 242 74 201 32 356 259 56 18 4 334 69 39 19 54 24 358 328 334 359 309 6 326 307 301 286
241 247 267 287 292 255 246 244 250 253 253 261 274 282 209 165 151 185 202 235 184 300 28 258 80 60 49 76 324 26 16 43 38 42 270 81 34 19 12 339 299 302 331 303 286 269 269
238 245 261 280 285 253 246 241 243 246 251 250 271 238 179 184 164 200 208 185 215 27 257 133 106 155 86 57 61 72 43 54 32 40 71 78 104 59 3 327 333 325 299 297 270 254 233
237 242 254 273 272 246 241 235 235 239 237 239 264 198 176 167 175 225 188 169 206 140 113 154 135 104 85 74 70 64 67 52 37 307 166 146 69 51 13 355 0 332 349 343 23 57 12
234 238 251 269 260 240 237 230 231 237 217 223 224 187 187 191 198 161 149 202 103 242 164 94 154 173 102 118 56 60 66 47 27 357 353 339 182 22 4 3 336 21 22 26 334 24 37
233 235 248 265 244 231 229 220 222 217 198 178 130 101 112 175 157 154 194 77 195 194 109 156 186 199 138 117 276 139 78 37 37 23 34 1 87 7 20 342 12 346 15 36 334 0 81
233 233 245 257 234 223 218 212 211 196 170 156 130 158 181 153 155 160 78 204 120 40 38 299 240 303 129 104 196 139 76 32 24 34 331 42 321 53 32 31 39 37 24 16 15 43 86
231 232 242 251 226 218 211 205 204 188 173 170 181 195 151 153 162 218 135 86 113 74 49 337 102 126 94 106 54 68 60 77 21 359 298 298 216 144 62 27 31 12 25 7 96 68 56
224 229 239 241 219 211 205 201 199 180 176 175 259 164 161 163 225 132 142 130 117 113 106 56 44 52 60 75 70 89 87 40 7 323 17 41 304 66 84 72 97 72 44 59 347 47 31
217 224 236 228 213 206 202 198 195 183 182 180 243 107 165 190 171 119 129 123 81 112 38 98 106 41 42 82 108 100 115 49 3 29 2 4 282 231 161 155 51 50 354 85 104 327 16
213 220 231 218 207 200 200 196 193 189 192 207 238 117 162 228 280 144 152 147 115 75 68 85 101 106 107 87 75 141 122 73 55 45 293 303 64 59 68 61 49 5 356 72 29 72 80
212 218 218 206 204 199 199 194 189 189 191 196 263 75 165 170 140 157 159 140 137 129 89 48 95 69 52 129 126 105 109 166 113 94 243 311 88 94 90 94 70 39 28 82 90 99 90
209 219 213 205 197 192 196 188 186 184 183 193 236 146 203 125 124 121 154 139 109 85 34 73 108 88 55 66 25 112 59 19 42 26 2 357 122 117 109 108 87 61 24 40 31 79 97
208 217 209 200 195 192 192 186 181 179 174 201 197 141 136 153 157 121 119 128 118 103 45 68 99 97 83 71 75 79 74 71 65 14 356 281 150 145 144 111 73 59 358 2 43 28 12
207 210 202 196 191 190 189 184 180 174 167 152 164 167 161 145 99 102 111 111 106 86 112 65 39 104 119 126 113 118 98 95 66 49 9 20 13 257 143 176 84 95 327 315 43 41 3
206 201 194 191 188 189 188 183 177 172 165 156 184 190 119 105 104 102 105 107 103 91 80 78 72 103 139 181 221 158 151 170 71 74 8 62 74 236 159 69 114 138 29 64 36 59 30
201 193 189 188 186 187 185 180 178 175 168 166 151 132 127 105 82 115 118 124 113 105 85 91 88 113 237 251 73 37 46 330 26 353 12 102 73 39 48 131 111 44 108 144 139 76 15
195 188 187 185 184 185 184 178 176 173 171 147 147 149 119 105 46 43 93 99 89 69 92 127 139 158 237 54 75 77 70 27 25 30 353 23 43 38 324 100 86 15 116 166 317 360 339
189 184 185 182 183 183 180 176 173 169 157 141 138 141 134 104 64 62 68 73 56 80 142 146 155 310 69 82 91 83 80 69 72 50 43 42 339 20 324 79 92 1 325 41 34 343 319
183 181 181 179 181 180 175 171 166 158 154 149 139 150 130 96 100 73 63 78 100 61 87 107 87 79 79 113 154 105 79 56 78 66 21 47 35 4 20 58 43 21 61 54 307 323 329
Wind_Speed_850mb
36 38 42 40 38 37 36 30 29 25 22 27 26 25 27 27 27 27 25 23 19 11 7 8 6 13 19 14 5 11 29 25 28 19 24 24 26 29 31 30 37 23 24 30 13 11 5
37 38 43 41 39 39 38 30 26 22 21 26 28 23 26 24 24 24 21 18 12 5 5 3 3 16 15 23 11 15 26 22 20 22 25 23 26 25 24 30 27 33 29 25 22 15 9
37 38 42 42 38 43 36 32 24 19 22 25 26 23 24 23 22 21 15 10 5 5 5 4 9 12 15 15 16 16 24 17 15 15 21 24 23 21 23 24 17 15 24 26 28 11 7
38 39 42 40 42 42 37 29 20 19 23 21 25 24 22 21 20 18 8 4 1 1 5 6 7 7 11 6 18 19 21 9 11 9 10 5 11 18 24 24 26 27 30 28 22 19 14
40 38 39 39 44 42 37 25 19 20 24 22 22 23 24 17 16 12 8 21 17 16 8 9 4 10 4 11 21 16 19 8 6 1 3 2 7 24 22 24 24 22 22 13 15 19 3
39 37 34 39 44 43 32 23 23 22 24 22 22 20 23 18 11 10 17 21 6 2 4 7 8 14 3 13 10 20 13 10 8 4 12 15 16 19 12 19 19 27 28 27 25 19 9
39 34 34 38 42 41 27 23 23 23 24 22 22 19 19 15 11 15 20 18 6 2 11 17 8 14 10 16 5 20 18 7 9 13 20 4 17 18 21 19 22 26 28 28 24 19 11
36 33 34 38 41 39 24 24 23 24 22 21 22 19 18 15 13 25 33 8 5 7 6 4 13 8 11 13 6 26 26 9 9 16 2 12 14 19 16 20 18 25 32 31 22 21 10
37 33 32 37 40 33 25 24 24 22 19 19 21 18 19 12 17 32 33 13 13 16 10 4 3 11 20 14 17 23 21 18 17 3 12 15 19 14 14 18 23 24 24 26 23 28 29
41 33 31 37 40 29 24 24 23 20 18 18 19 16 13 9 9 19 17 22 21 7 7 4 2 8 17 3 6 21 18 8 1 13 11 12 15 20 17 12 22 23 22 26 30 25 21
44 36 32 36 35 25 25 23 21 19 19 16 14 13 11 28 14 17 16 17 20 7 5 0 10 5 17 8 6 21 21 17 21 18 10 13 17 21 21 19 26 25 30 34 34 28 22
49 41 34 35 33 26 28 23 19 21 18 11 11 7 13 17 14 17 23 15 9 3 6 8 4 8 17 22 23 15 22 10 4 4 20 15 11 15 25 29 22 14 32 35 32 25 16
53 45 36 35 34 29 28 24 21 21 14 8 9 10 24 23 6 20 27 17 4 8 1 14 11 11 16 15 11 14 28 30 18 8 9 21 20 12 34 24 21 28 30 12 12 6 8
56 46 38 36 35 30 30 22 23 18 11 9 5 8 19 27 17 27 36 10 7 8 8 11 9 8 4 3 14 8 12 16 28 26 5 12 7 24 24 15 24 27 25 9 9 10 6
57 49 40 36 36 33 30 25 23 16 12 11 10 9 3 14 31 34 10 8 5 3 10 15 11 12 8 9 3 8 25 19 18 24 12 10 7 12 13 11 22 14 18 6 9 18 12
57 52 42 37 38 35 32 27 23 20 19 15 8 4 6 29 30 13 3 7 5 8 6 6 6 6 6 7 9 4 11 15 10 15 16 1 1 9 12 14 20 17 24 9 10 8 7
60 55 45 39 40 36 33 29 26 25 25 18 9 8 12 26 18 12 4 6 14 10 5 11 2 5 10 5 6 6 10 12 14 11 9 4 9 2 1 17 23 17 11 11 9 6 4
63 57 48 42 42 39 37 33 30 33 27 16 7 5 24 29 11 15 8 12 21 14 9 6 13 14 8 4 9 6 12 14 14 15 8 6 10 8 17 19 22 32 14 9 5 5 5
65 59 50 45 45 42 40 36 35 39 32 16 6 12 26 12 4 8 16 21 15 9 8 5 8 9 4 7 5 10 12 9 13 10 9 11 3 4 15 13 27 16 12 6 6 0 12
68 62 50 49 49 44 43 39 37 41 39 16 7 6 9 14 14 27 24 19 12 16 19 19 15 13 12 10 9 9 13 7 7 11 4 7 7 16 13 18 9 6 3 6 7 9 10
72 61 54 53 49 44 44 39 37 43 43 16 6 3 6 11 18 23 13 21 24 10 8 5 7 5 6 4 10 7 12 12 8 5 4 8 21 30 27 24 25 25 22 16 19 14 9
73 61 56 56 54 52 51 44 42 47 45 22 4 8 8 29 29 25 9 19 23 18 4 9 12 7 15 19 17 10 3 12 12 7 5 3 9 27 24 26 31 22 34 25 25 19 20
68 56 58 59 57 53 48 43 45 51 46 9 8 20 14 26 23 15 10 13 21 16 22 20 18 22 23 21 23 25 26 22 15 13 10 5 15 18 14 11 8 18 15 19 20 23 27
62 56 58 59 55 53 50 47 52 54 41 9 19 17 18 16 13 14 27 30 17 12 20 20 12 19 9 15 19 17 20 19 19 17 12 15 2 4 14 14 5 3 1 6 10 20 30
59 59 60 61 58 54 50 50 54 55 31 22 21 6 30 21 39 35 39 40 42 39 35 29 27 24 19 12 6 9 7 5 10 15 14 12 8 5 7 7 10 3 3 3 9 21 25
60 62 63 62 58 54 52 53 54 55 36 37 16 25 51 39 22 36 37 32 22 22 23 24 14 8 4 10 5 11 9 12 10 13 23 8 5 5 4 7 6 7 10 8 1 9 30
62 64 64 62 57 54 53 53 55 50 40 37 41 40 27 46 27 13 16 14 7 22 12 16 8 4 7 12 11 12 10 11 12 13 15 6 8 9 6 9 10 12 6 9 5 8 27
63 63 62 59 55 54 53 55 57 43 46 43 38 37 39 32 42 32 31 24 6 8 9 13 9 1 11 9 10 8 10 8 10 20 8 12 10 7 8 8 11 27 6 3 3 13 21
64 63 60 56 55 54 53 57 55 54 47 43 44 38 70 44 49 46 35 17 22 16 16 11 16 13 5 4 6 8 16 7 8 6 24 9 8 3 11 7 11 11 8 6 8 19 22
Wind_Direction_850mb
297 302 308 310 309 314 311 294 285 277 271 275 276 282 290 293 296 297 300 301 302 296 299 305 279 192 185 247 249 9 353 328 301 279 267 266 261 266 267 267 284 285 285 269 300 316 88
292 297 304 306 304 309 306 295 282 271 266 276 281 285 288 291 292 294 295 296 293 260 279 253 133 171 198 259 340 320 317 316 285 264 256 257 260 274 314 289 286 294 319 298 293 271 132
286 293 299 300 300 306 305 292 275 256 266 276 281 288 288 289 289 289 290 286 265 269 247 214 176 196 262 286 338 320 324 310 298 262 260 252 259 279 281 300 320 306 276 260 225 183 158
283 289 296 296 297 304 303 290 261 258 269 276 281 287 285 290 291 288 266 193 114 228 178 163 152 240 281 312 346 321 334 322 316 274 249 309 251 274 276 280 282 248 247 261 191 143 126
277 281 288 291 296 301 300 283 260 267 270 271 277 286 285 282 287 278 195 143 97 76 135 139 200 248 237 313 335 332 337 315 327 193 274 242 236 248 255 246 267 220 299 233 155 117 345
268 276 280 290 295 299 291 258 253 262 270 274 277 278 283 281 276 233 174 165 83 111 128 204 267 252 336 333 322 338 344 293 284 206 219 220 234 232 255 14 343 332 330 326 316 115 95
265 270 279 290 296 297 277 247 254 260 264 270 273 275 277 275 249 187 164 159 232 185 190 38 26 272 11 340 339 351 338 264 231 237 273 151 280 34 8 354 331 313 312 307 299 94 27
261 262 280 294 299 293 253 246 256 258 264 269 272 274 273 260 218 183 177 202 329 119 153 78 59 80 351 350 341 2 4 253 213 257 55 247 59 18 350 313 299 324 304 291 293 42 5
249 253 278 294 300 281 245 250 255 255 264 269 273 272 268 241 202 192 185 299 240 165 230 172 130 35 7 53 31 8 4 316 334 54 28 48 23 339 328 318 355 324 333 350 342 325 300
242 249 271 289 299 268 244 249 254 256 260 267 271 274 261 180 177 182 205 250 200 186 242 74 201 32 356 259 56 18 4 334 69 39 19 54 24 358 328 334 359 309 6 326 307 301 286
241 247 267 287 292 255 246 244 250 253 253 261 274 282 209 165 151 185 202 235 184 300 28 258 80 60 49 76 324 26 16 43 38 42 270 81 34 19 12 339 299 302 331 303 286 269 269
238 245 261 280 285 253 246 241 243 246 251 250 271 238 179 184 164 200 208 185 215 27 257 133 106 155 86 57 61 72 43 54 32 40 71 78 104 59 3 327 333 325 299 297 270 254 233
237 242 254 273 272 246 241 235 235 239 237 239 264 198 176 167 175 225 188 169 206 140 113 154 135 104 85 74 70 64 67 52 37 307 166 146 69 51 13 355 0 332 349 343 23 57 12
234 238 251 269 260 240 237 230 231 237 217 223 224 187 187 191 198 161 149 202 103 242 164 94 154 173 102 118 56 60 66 47 27 357 353 339 182 22 4 3 336 21 22 26 334 24 37
233 235 248 265 244 231 229 220 222 217 198 178 130 101 112 175 157 154 194 77 195 194 109 156 186 199 138 117 276 139 78 37 37 23 34 1 87 7 20 342 12 346 15 36 334 0 81
233 233 245 257 234 223 218 212 211 196 170 156 130 158 181 153 155 160 78 204 120 40 38 299 240 303 129 104 196 139 76 32 24 34 331 42 321 53 32 31 39 37 24 16 15 43 86
231 232 242 251 226 218 211 205 204 188 173 170 181 195 151 153 162 218 135 86 113 74 49 337 102 126 94 106 54 68 60 77 21 359 298 298 216 144 62 27 31 12 25 7 96 68 56
224 229 239 241 219 211 205 201 199 180 176 175 259 164 161 163 225 132 142 130 117 113 106 56 44 52 60 75 70 89 87 40 7 323 17 41 304 66 84 72 97 72 44 59 347 47 31
217 224 236 228 213 206 202 198 195 183 182 180 243 107 165 190 171 119 129 123 81 112 38 98 106 41 42 82 108 100 115 49 3 29 2 4 282 231 161 155 51 50 354 85 104 327 16
213 220 231 218 207 200 200 196 193 189 192 207 238 117 162 228 280 144 152 147 115 75 68 85 101 106 107 87 75 141 122 73 55 45 293 303 64 59 68 61 49 5 356 72 29 72 80
212 218 218 206 204 199 199 194 189 189 191 196 263 75 165 170 140 157 159 140 137 129 89 48 95 69 52 129 126 105 109 166 113 94 243 311 88 94 90 94 70 39 28 82 90 99 90
209 219 213 205 197 192 196 188 186 184 183 193 236 146 203 125 124 121 154 139 109 85 34 73 108 88 55 66 25 112 59 19 42 26 2 357 122 117 109 108 87 61 24 40 31 79 97
208 217 209 200 195 192 192 186 181 179 174 201 197 141 136 153 157 121 119 128 118 103 45 68 99 97 83 71 75 79 74 71 65 14 356 281 150 145 144 111 73 59 358 2 43 28 12
207 210 202 196 191 190 189 184 180 174 167 152 164 167 161 145 99 102 111 111 106 86 112 65 39 104 119 126 113 118 98 95 66 49 9 20 13 257 143 176 84 95 327 315 43 41 3
206 201 194 191 188 189 188 183 177 172 165 156 184 190 119 105 104 102 105 107 103 91 80 78 72 103 139 181 221 158 151 170 71 74 8 62 74 236 159 69 114 138 29 64 36 59 30
201 193 189 188 186 187 185 180 178 175 168 166 151 132 127 105 82 115 118 124 113 105 85 91 88 113 237 251 73 37 46 330 26 353 12 102 73 39 48 131 111 44 108 144 139 76 15
195 188 187 185 184 185 184 178 176 173 171 147 147 149 119 105 46 43 93 99 89 69 92 127 139 158 237 54 75 77 70 27 25 30 353 23 43 38 324 100 86 15 116 166 317 360 339
189 184 185 182 183 183 180 176 173 169 157 141 138 141 134 104 64 62 68 73 56 80 142 146 155 310 69 82 91 83 80 69 72 50 43 42 339 20 324 79 92 1 325 41 34 343 319
183 181 181 179 181 180 175 171 166 158 154 149 139 150 130 96 100 73 63 78 100 61 87 107 87 79 79 113 154 105 79 56 78 66 21 47 35 4 20 58 43 21 61 54 307 323 329